SCP
0 0 0 0 0 0 0 0 0 0 0 0 0 0 0 0 0 0 0 0 0 0 0 0 0 0 0 0 0 0 0 0 0 0 0 0 0 0
0 0 0 0 0 0 0 0 0 0 0 0 0 0 0 0 0 0 0 0 0 0 0 0 0 0 0 0 0 0 0 0 0 0 0 0 0 0
0 0 0 0 0 0 0 0 0 0 0 0 0 0 0 0 0 0 0 0 0 0 0 0 0 0 0 0 0 0 0 0 0 0 0 0 0 0
0 0 0 0 0 0 0 0 0 0 0 0 0 0 0 0 0 0 0 0 0 0 0 0 0 0 0 0 0 0 0 0 0 0 0 0 0 0
0 0 0 0 0 0 0 0 0 0 0 0 0 0 0 0 0 0 0 0 0 0 0 0 0 0 0 0 0 0 0 0 0 0 0 0 0 0
0 0 0 0 0 0 0 0 0 0 0 0 0 0 0 0 0 0 0 0 0 0 0 0 0 0 0 0 0 0 0 0 0 0 0 0 0 0
0 0 0 0 0 0 0 0 0 0 0 0 0 0 0 0 0 0 0 0 0 0 0 0 0 0 0 0 0 0 0 0 0 0 0 0 0 0
0 0 0 0 0 0 0 0 0 0 0 0 0 0 0 0 0 0 0 0 0 0 0 0 0 0 0 0 0 0 0 0 0 0 0 0 0 0
0 0 0 0 0 0 0 0 0 0 0 0 0 0 0 0 0 0 0 0 0 0 0 0 0 0 0 0 0 0 0 0 0 0 0 0 0 0
0 0 0 0 0 0 0 0 0 0 0 0 0 0 0 0 0 0 0 0 0 0 0 0 0 0 0 0 0 0 0 0 0 0 0 0 0 0
0 0 0 0 0 0 0 0 0 0 0 0 0 0 0 0 0 0 0 0 0 0 0 0 0 0 0 0 0 0 0 0 0 0 0 0 0 0
0 0 0 0 0 0 0 0 0 0 0 0 0 0 0 0 0 0 0 0 0 0 0 0 0 0 0 0 0 0 0 0 0 0 0 0 0 0
0 0 0 0 0 0 0 0 0 0 0 0 0 0 0 0 0 0 0 0 0 0 0 0 0 0 0 0 0 0 0 0 0 0 0 0 0 0
0 0 0 0 0 0 0 0 0 0 0 0 0 0 0 0 0 0 0 0 0 0 0 0 0 0 0 0 0 0 0 0 0 0 0 0 0 0
0 0 0 0 0 0 0 0 0 0 0 0 0 0 0 0 0 0 0 0 0 0 0 0 0 0 0 0 0 0 0 0 0 0 0 0 0 0
0 0 0 0 0 0 0 0 0 0 0 0 0 0 0 0 0 0 0 0 0 0 0 0 0 0 0 0 0 0 0 0 0 0 0 0 0 0
0 0 0 0 0 0 0 0 0 0 0 0 0 0 0 0 0 0 0 0 0 0 0 0 0 0 0 0 0 0 0 0 0 0 0 0 0 0
0 0 0 0 0 0 0 0 0 0 0 0 0 0 0 0 0 0 0 0 0 0 0 0 0 0 0 0 0 0 0 0 0 0 0 0 0 0
0 0 0 0 0 0 0 0 0 0 0 0 0 0 0 0 0 0 0 0 0 0 0 0 0 0 0 0 0 0 0 0 0 0 0 0 0 0
0 0 0 0 0 0 0 0 0 0 0 0 0 0 0 0 0 0 0 0 0 0 0 0 0 0 0 0 0 0 0 0 0 0 0 0 0 0
0 0 0 0 0 0 0 0 0 0 0 0 0 0 0 0 0 0 0 0 0 0 0 0 0 0 0 0 0 0 0 0 0 0 0 0 0 0
0 0 0 0 0 0 0 0 0 0 0 0 0 0 0 0 0 0 0 0 0 0 0 0 0 0 0 0 0 0 0 0 0 0 0 0 0 0
0 0 0 0 0 0 0 0 0 0 0 0 0 0 0 0 0 0 0 0 0 0 0 0 0 0 0 0 0 0 0 0 0 0 0 0 0 0
Wind_Speed
2 2 2 1 2 1 2 3 4 2 1 2 2 3 3 2 4 4 4 7 8 9 10 11 12 12 13 13 14 14 14 14 14 14 14 14 14 14
2 3 3 2 2 2 2 2 2 3 2 1 1 2 3 3 5 4 4 8 9 9 10 10 11 11 12 12 13 13 13 13 14 14 14 14 14 14
2 3 3 2 2 2 2 2 2 3 3 0 1 2 3 4 4 4 4 4 5 9 10 10 11 11 12 12 12 12 13 13 13 13 13 13 14 14
2 3 2 3 3 2 2 2 2 2 3 2 2 2 2 2 3 4 4 4 4 8 10 10 10 11 11 11 11 12 12 12 12 13 13 13 13 13
2 3 3 3 3 2 3 2 2 3 3 3 1 1 2 2 2 3 4 3 4 6 8 9 10 10 10 11 11 11 11 12 12 12 12 13 13 13
2 2 3 3 3 3 3 3 3 4 4 3 2 1 1 2 2 2 3 3 3 4 5 6 8 10 10 10 10 10 10 10 11 11 12 12 12 12
2 2 3 4 5 4 3 3 4 3 3 3 2 2 2 1 1 1 1 2 2 3 3 4 4 4 5 7 8 9 9 10 10 11 11 11 11 12
2 2 2 3 4 5 6 6 6 5 3 3 1 1 1 1 1 1 1 2 2 3 2 3 3 3 3 3 7 8 9 9 9 10 10 10 11 11
3 2 2 3 3 3 5 6 5 5 5 4 3 2 1 1 1 1 1 1 0 2 1 2 3 2 2 4 8 8 8 8 9 9 9 9 10 10
2 3 3 2 3 5 5 4 3 3 2 2 2 1 1 1 2 2 2 1 0 2 2 1 2 2 2 2 7 8 9 9 9 9 9 9 9 9
2 2 3 3 5 7 6 4 3 2 4 5 5 4 4 4 4 3 2 2 1 2 2 1 2 2 2 2 4 8 9 9 9 9 10 10 9 8
2 2 3 4 5 7 5 5 3 1 2 3 4 5 4 4 5 2 2 2 1 1 1 1 1 2 3 2 2 3 4 7 9 9 10 10 9 5
2 1 1 5 6 7 6 4 4 4 3 3 3 3 3 3 3 2 1 2 2 1 1 0 0 1 1 3 3 3 3 3 4 6 8 10 9 6
3 2 3 6 7 7 5 5 7 6 3 3 3 2 2 2 2 2 2 2 1 1 0 1 1 1 0 1 3 3 3 3 3 4 4 7 8 8
3 6 6 7 6 5 5 6 5 3 3 3 2 0 0 1 1 2 2 3 3 3 3 1 1 0 1 1 2 2 3 3 3 4 4 4 4 4
4 6 7 6 5 5 4 3 2 2 3 2 1 0 1 1 2 1 1 1 2 3 4 3 2 1 0 1 1 2 2 3 4 4 4 4 4 4
6 4 3 3 2 2 2 2 2 2 2 1 2 1 1 1 1 1 1 1 1 1 3 3 3 2 0 0 1 2 3 3 4 4 4 4 4 5
7 4 3 3 3 3 2 2 1 1 1 2 2 1 1 1 1 1 1 1 1 1 1 2 2 2 2 2 1 2 2 3 4 4 3 3 5 5
5 4 4 4 3 3 3 2 2 2 2 2 2 1 1 1 1 1 1 1 1 1 1 1 1 2 2 3 3 1 2 3 3 3 3 3 4 6
3 4 4 4 3 3 3 2 2 2 2 2 1 1 1 1 1 0 0 0 0 1 1 1 1 1 1 2 3 3 4 3 3 4 4 4 4 6
4 3 3 3 3 3 3 3 3 2 2 2 2 1 1 1 1 1 0 0 0 1 1 2 3 3 1 1 2 3 4 5 4 3 4 4 5 5
3 3 3 3 3 3 3 3 3 2 2 2 2 2 1 2 2 1 1 1 1 1 1 2 2 2 1 1 3 4 5 5 6 7 6 5 4 5
4 3 3 3 3 3 3 3 3 2 2 2 2 2 2 1 1 1 1 1 1 0 1 1 2 1 1 1 2 3 5 6 4 4 5 8 9 10
Wind_Direction
98 104 99 92 106 118 128 138 138 125 351 327 339 345 353 9 16 27 29 37 43 45 46 44 44 45 44 43 43 42 41 39 40 41 40 37 35 33
93 95 86 87 88 88 105 104 116 136 139 297 304 325 350 24 36 35 36 41 44 48 49 49 50 49 48 47 45 43 41 39 37 37 36 35 33 31
84 100 94 95 91 80 85 91 91 110 123 5 345 353 17 22 13 22 37 39 38 48 54 55 53 52 51 49 47 44 43 41 37 34 33 32 31 29
107 107 103 102 89 82 87 88 91 101 124 116 18 7 15 10 10 24 31 41 39 45 53 54 52 53 52 49 47 46 43 40 36 33 31 30 28 27
128 130 128 117 106 96 94 92 86 85 89 108 63 11 2 10 14 20 33 26 34 38 46 49 51 53 52 49 47 46 43 40 37 34 31 29 26 24
117 127 131 136 139 130 114 108 103 92 86 89 74 32 11 356 34 25 19 22 26 24 29 41 45 46 45 45 46 45 42 39 36 34 31 28 25 23
98 105 119 130 134 135 128 130 120 108 99 92 78 48 18 10 2 349 21 9 27 21 12 23 27 32 32 34 39 42 40 36 33 30 27 24 22 21
126 109 103 110 116 118 120 124 129 128 131 119 106 105 295 280 324 46 43 36 2 359 20 9 26 26 18 29 34 38 37 33 29 26 23 22 20 18
138 129 114 109 109 108 103 100 95 104 128 138 136 178 201 223 153 91 89 101 142 325 18 360 1 12 7 25 34 35 32 28 24 21 20 18 15 12
140 142 132 125 124 126 110 93 78 68 100 115 138 168 166 164 159 157 155 126 38 9 36 13 340 336 352 0 26 33 30 26 20 16 13 12 11 10
123 131 141 138 138 133 119 112 89 59 68 85 88 77 72 85 109 97 81 77 17 340 12 40 323 321 325 338 8 22 23 22 18 14 11 8 7 6
102 105 133 141 138 136 133 132 129 129 92 72 59 50 52 64 83 99 131 121 110 320 335 20 338 355 335 324 346 3 8 9 12 11 8 5 6 6
138 136 132 139 137 137 137 142 152 140 112 96 74 52 45 45 42 46 71 123 134 229 309 72 41 14 319 308 326 348 359 355 358 360 1 2 4 7
157 160 141 136 132 131 132 134 130 118 103 91 76 52 37 23 19 33 46 60 82 132 325 120 144 181 247 305 307 325 333 345 354 353 352 354 358 357
151 145 137 131 125 119 116 121 118 113 112 105 106 77 357 10 35 40 32 42 41 33 31 43 87 123 143 235 293 311 319 326 344 345 346 349 345 344
132 121 117 110 104 100 95 98 103 128 133 141 142 116 53 53 45 40 39 25 35 5 6 18 30 81 87 290 287 310 317 317 332 336 337 338 341 344
133 109 102 105 105 95 89 91 97 107 111 111 115 103 77 66 36 27 48 51 57 356 352 358 4 25 34 250 311 306 312 316 320 329 335 334 333 336
131 134 145 152 161 164 157 144 131 140 143 126 120 119 110 96 57 40 55 72 49 347 341 344 357 4 5 356 276 289 318 316 322 330 331 324 323 329
135 149 160 169 173 172 169 163 167 167 144 137 137 137 131 120 100 73 56 43 354 327 324 340 7 19 355 331 323 333 314 317 326 330 324 310 306 313
154 163 172 173 171 170 170 165 156 139 134 139 142 143 140 137 135 151 183 197 278 316 335 345 338 314 278 286 298 312 323 318 318 318 316 310 296 298
175 177 174 169 166 165 162 157 155 154 153 152 157 162 163 156 175 210 230 328 21 332 317 306 297 319 329 14 328 317 316 322 323 316 317 318 320 322
170 172 172 166 162 160 157 155 157 162 165 167 173 176 174 173 186 197 204 219 253 278 297 314 339 6 27 331 308 311 316 325 329 331 330 328 322 319
168 163 162 164 161 156 155 158 164 174 177 175 175 179 176 178 186 189 211 223 241 291 331 333 342 343 324 306 308 311 316 322 326 328 322 324 320 313